When you browse on this site, cookies collect data to enhance your experience and personalize the content and advertising you see.
Visit our Privacy Policy to learn more. By continuing to use the site, you agree to this use of cookies and data.
  • En España
  • Lista de países
  • Para 7 días
  • Temperatura del agua
  • Mapa Satelital
  • El tiempo en el mapa
  • Informadores
  • user-avatar
    Iniciar sesión

    Tiempo cada hora Borovkovskiy

    Hoy, 22 Marzo, Viernes

    Tiempo Temperatura Precipitaciones Viento Presión Humedad
    00:00 -2°C° 0 mm 2 mps 743 mmHg 94%
    01:00 -3°C° 0 mm 2 mps 743 mmHg 93%
    02:00 -3°C° 0 mm 2 mps 742 mmHg 93%
    03:00 -3°C° 0 mm 2 mps 742 mmHg 92%
    04:00 -4°C° 0 mm 3 mps 741 mmHg 93%
    05:00 -4°C° 0 mm 3 mps 741 mmHg 93%
    06:00 -4°C° 0 mm 3 mps 740 mmHg 93%
    07:00 -3°C° 0.2 mm 4 mps 739 mmHg 91%
    08:00 -2°C° 0.2 mm 5 mps 738 mmHg 90%
    09:00 -2°C° 0 mm 6 mps 737 mmHg 88%
    10:00 -2°C° 0.9 mm 7 mps 736 mmHg 89%
    11:00 -2°C° 0.9 mm 7 mps 735 mmHg 91%
    12:00 -2°C° 0.9 mm 7 mps 734 mmHg 93%
    13:00 -1°C° 0.9 mm 7 mps 734 mmHg 93%
    14:00 -1°C° 0.9 mm 7 mps 733 mmHg 93%
    15:00 -1°C° 0.9 mm 7 mps 733 mmHg 93%
    16:00 -1°C° 0.6 mm 7 mps 733 mmHg 90%
    17:00 -2°C° 0.6 mm 8 mps 734 mmHg 87%
    18:00 -2°C° 0.6 mm 8 mps 734 mmHg 84%
    19:00 -2°C° 0.2 mm 8 mps 734 mmHg 84%
    20:00 -4°C° 0.2 mm 8 mps 735 mmHg 84%
    21:00 -5°C° 0.2 mm 8 mps 735 mmHg 84%
    22:00 -5°C° 0.1 mm 8 mps 735 mmHg 85%
    23:00 -5°C° 0.1 mm 8 mps 736 mmHg 86%

    Mañana, 23 Marzo, Sábado

    Tiempo Temperatura Precipitaciones Viento Presión Humedad
    00:00 -4°C° 0.1 mm 7 mps 736 mmHg 87%
    01:00 -3°C° 0.2 mm 7 mps 736 mmHg 88%
    02:00 -3°C° 0.2 mm 7 mps 736 mmHg 89%
    03:00 -3°C° 0.2 mm 7 mps 737 mmHg 90%
    04:00 -3°C° 0.2 mm 7 mps 737 mmHg 90%
    05:00 -3°C° 0.2 mm 7 mps 738 mmHg 91%
    06:00 -3°C° 0.2 mm 6 mps 739 mmHg 91%
    07:00 -3°C° 0 mm 6 mps 740 mmHg 91%
    08:00 -3°C° 0 mm 6 mps 741 mmHg 90%
    09:00 -3°C° 0 mm 6 mps 742 mmHg 89%
    10:00 -3°C° 0 mm 6 mps 743 mmHg 89%
    11:00 -3°C° 0 mm 6 mps 743 mmHg 90%
    12:00 -3°C° 0 mm 6 mps 744 mmHg 90%
    13:00 -2°C° 0 mm 5 mps 744 mmHg 90%
    14:00 -2°C° 0 mm 5 mps 744 mmHg 89%
    15:00 -2°C° 0 mm 5 mps 744 mmHg 88%
    16:00 -2°C° 0 mm 4 mps 744 mmHg 88%
    17:00 -1°C° 0 mm 3 mps 744 mmHg 87%
    18:00 -1°C° 0 mm 3 mps 744 mmHg 87%
    19:00 -1°C° 0 mm 2 mps 744 mmHg 87%
    20:00 -1°C° 0 mm 2 mps 745 mmHg 88%
    21:00 -2°C° 0 mm 2 mps 745 mmHg 89%
    22:00 0°C° 0 mm 1 mps 745 mmHg 88%
    23:00 0°C° 0 mm 1 mps 744 mmHg 88%

    Pasado mañana, 24 Marzo, Domingo

    Tiempo Temperatura Precipitaciones Viento Presión Humedad
    00:00 -1°C° 0 mm 0 mps 744 mmHg 87%
    01:00 0°C° 0 mm 1 mps 744 mmHg 87%
    02:00 -1°C° 0 mm 1 mps 743 mmHg 87%
    03:00 -3°C° 0 mm 2 mps 743 mmHg 87%
    04:00 -3°C° 0 mm 2 mps 742 mmHg 88%
    05:00 -3°C° 0 mm 2 mps 742 mmHg 88%
    06:00 -5°C° 0 mm 3 mps 741 mmHg 89%
    07:00 -4°C° 0 mm 3 mps 741 mmHg 89%
    08:00 -3°C° 0 mm 4 mps 740 mmHg 89%
    09:00 -2°C° 0 mm 5 mps 740 mmHg 88%
    10:00 -2°C° 0.2 mm 5 mps 739 mmHg 90%
    11:00 -2°C° 0.2 mm 5 mps 739 mmHg 91%
    12:00 -1°C° 0.2 mm 5 mps 738 mmHg 92%
    13:00 -1°C° 0.2 mm 5 mps 738 mmHg 93%
    14:00 -1°C° 0.2 mm 5 mps 737 mmHg 93%
    15:00 -1°C° 0.2 mm 5 mps 737 mmHg 94%
    16:00 -1°C° 0 mm 4 mps 737 mmHg 93%
    17:00 -1°C° 0 mm 4 mps 736 mmHg 92%
    18:00 0°C° 0 mm 3 mps 736 mmHg 92%
    19:00 0°C° 0.1 mm 3 mps 736 mmHg 91%
    20:00 0°C° 0.1 mm 3 mps 736 mmHg 91%
    21:00 -1°C° 0.1 mm 3 mps 737 mmHg 90%
    22:00 -1°C° 0 mm 3 mps 736 mmHg 89%
    23:00 -2°C° 0 mm 3 mps 736 mmHg 89%

    25 Marzo, Lunes

    Tiempo Temperatura Precipitaciones Viento Presión Humedad
    00:00 -2°C° 0 mm 3 mps 736 mmHg 88%
    01:00 -4°C° 0 mm 3 mps 736 mmHg 88%
    02:00 -4°C° 0 mm 3 mps 736 mmHg 87%
    03:00 -4°C° 0 mm 3 mps 736 mmHg 87%
    04:00 -4°C° 0 mm 3 mps 736 mmHg 86%
    05:00 -5°C° 0 mm 3 mps 736 mmHg 86%
    06:00 -5°C° 0 mm 3 mps 736 mmHg 85%
    07:00 -4°C° 0 mm 3 mps 736 mmHg 83%
    08:00 -3°C° 0 mm 4 mps 736 mmHg 81%
    09:00 -2°C° 0 mm 4 mps 736 mmHg 79%
    10:00 -1°C° 0 mm 4 mps 736 mmHg 75%
    11:00 0°C° 0 mm 4 mps 736 mmHg 72%
    12:00 +1°C° 0 mm 4 mps 736 mmHg 69%
    13:00 +1°C° 0 mm 4 mps 736 mmHg 66%
    14:00 +3°C° 0 mm 4 mps 736 mmHg 63%
    15:00 +3°C° 0 mm 4 mps 736 mmHg 60%
    16:00 +2°C° 0 mm 3 mps 736 mmHg 64%
    17:00 +2°C° 0 mm 3 mps 736 mmHg 68%
    18:00 +2°C° 0 mm 2 mps 736 mmHg 72%
    19:00 +1°C° 0 mm 2 mps 736 mmHg 74%
    20:00 +1°C° 0 mm 2 mps 736 mmHg 75%
    21:00 -1°C° 0 mm 2 mps 737 mmHg 77%
    22:00 -1°C° 0 mm 2 mps 737 mmHg 78%
    23:00 -1°C° 0 mm 2 mps 737 mmHg 79%

    26 Marzo, Martes

    Tiempo Temperatura Precipitaciones Viento Presión Humedad
    00:00 -1°C° 0 mm 2 mps 737 mmHg 80%
    01:00 -1°C° 0 mm 2 mps 737 mmHg 81%
    02:00 -2°C° 0 mm 2 mps 737 mmHg 82%
    03:00 -2°C° 0 mm 2 mps 737 mmHg 82%
    04:00 -2°C° 0 mm 2 mps 737 mmHg 83%
    05:00 -2°C° 0 mm 2 mps 737 mmHg 83%
    06:00 -2°C° 0 mm 2 mps 738 mmHg 83%
    07:00 -1°C° 0 mm 2 mps 738 mmHg 81%
    08:00 -1°C° 0 mm 2 mps 738 mmHg 79%
    09:00 +1°C° 0 mm 2 mps 738 mmHg 76%
    10:00 +1°C° 0.1 mm 3 mps 738 mmHg 73%
    11:00 +2°C° 0.1 mm 3 mps 739 mmHg 69%
    12:00 +3°C° 0.1 mm 3 mps 739 mmHg 65%
    13:00 +1°C° 0.2 mm 4 mps 739 mmHg 69%
    14:00 +1°C° 0.2 mm 5 mps 739 mmHg 73%
    15:00 +1°C° 0.2 mm 6 mps 738 mmHg 76%
    16:00 0°C° 0.1 mm 5 mps 739 mmHg 75%
    17:00 -1°C° 0.1 mm 5 mps 739 mmHg 74%
    18:00 -2°C° 0.1 mm 4 mps 739 mmHg 73%
    19:00 -2°C° 0 mm 4 mps 740 mmHg 74%
    20:00 -2°C° 0 mm 3 mps 740 mmHg 75%
    21:00 -4°C° 0 mm 3 mps 741 mmHg 76%
    22:00 -4°C° 0 mm 3 mps 741 mmHg 76%
    23:00 -4°C° 0 mm 3 mps 742 mmHg 76%

    27 Marzo, Miércoles

    Tiempo Temperatura Precipitaciones Viento Presión Humedad
    00:00 -4°C° 0 mm 3 mps 742 mmHg 76%
    01:00 -4°C° 0 mm 3 mps 742 mmHg 76%
    02:00 -4°C° 0 mm 3 mps 742 mmHg 75%
    03:00 -4°C° 0 mm 3 mps 742 mmHg 75%
    04:00 -4°C° 0 mm 4 mps 742 mmHg 74%
    05:00 -4°C° 0 mm 4 mps 742 mmHg 73%
    06:00 -4°C° 0 mm 4 mps 742 mmHg 72%
    07:00 -4°C° 0 mm 5 mps 742 mmHg 67%
    08:00 -4°C° 0 mm 6 mps 742 mmHg 62%
    09:00 -3°C° 0 mm 6 mps 742 mmHg 56%
    10:00 -2°C° 0 mm 6 mps 742 mmHg 54%
    11:00 -1°C° 0 mm 6 mps 742 mmHg 51%
    12:00 0°C° 0 mm 7 mps 742 mmHg 49%
    13:00 +2°C° 0 mm 7 mps 742 mmHg 50%
    14:00 +2°C° 0 mm 7 mps 742 mmHg 51%
    15:00 +3°C° 0 mm 7 mps 742 mmHg 53%
    16:00 +2°C° 0 mm 6 mps 742 mmHg 58%
    17:00 +2°C° 0 mm 6 mps 742 mmHg 64%
    18:00 +1°C° 0 mm 5 mps 742 mmHg 69%
    19:00 +1°C° 0 mm 5 mps 742 mmHg 73%
    20:00 0°C° 0 mm 5 mps 742 mmHg 77%
    21:00 -1°C° 0 mm 5 mps 742 mmHg 81%
    22:00 -1°C° 0 mm 5 mps 742 mmHg 83%
    23:00 -1°C° 0 mm 5 mps 742 mmHg 85%
    Mostrar más